Probability
16 16 23 13 0 0 0 0 0 0 0 0 0 0 0 0 0 0 42 100 100 100 100 100 100 100 100 100 100 100 100 100 100 97 97 97 94 68 10 39 81 100 87
0 0 3 3 0 0 0 0 0 0 0 0 0 0 0 0 0 0 0 0 100 100 100 100 100 100 100 100 100 100 100 100 97 97 94 90 94 48 3 26 87 97 100
0 0 0 0 0 0 0 0 0 0 0 0 0 0 0 0 0 0 0 0 0 0 81 100 100 100 100 97 100 97 100 100 100 94 74 55 55 39 0 3 61 87 87
0 0 0 0 0 0 0 0 0 0 0 0 0 0 0 0 0 0 0 0 0 0 0 0 45 84 94 94 94 87 87 94 94 90 87 52 6 6 10 6 3 32 45
0 0 0 0 0 0 0 0 0 0 0 0 0 0 0 0 0 0 0 0 0 0 0 0 0 0 0 74 94 94 81 68 74 81 74 74 52 23 32 6 0 0 0
0 0 0 0 0 0 0 0 0 0 0 0 0 0 0 0 0 0 0 0 0 0 0 0 0 0 0 0 6 39 52 16 0 0 39 61 77 48 42 13 0 0 0
0 0 0 0 0 0 0 0 0 0 0 0 0 0 0 0 0 0 0 0 0 0 0 0 0 0 0 0 0 0 0 10 0 0 10 35 71 87 71 32 0 0 0
0 0 0 0 0 0 0 0 0 0 0 0 0 0 0 0 0 0 0 0 0 0 0 0 0 0 0 0 0 0 0 0 26 13 0 39 55 52 45 65 26 3 0
0 0 0 0 0 0 0 0 0 0 0 0 0 0 0 0 0 0 0 0 0 0 0 0 0 0 0 0 0 0 0 0 0 13 3 16 26 52 23 13 61 29 10
0 0 0 0 0 0 0 0 0 0 0 0 0 0 0 0 0 0 0 0 0 0 0 0 0 0 0 0 0 0 0 0 0 13 29 13 13 3 0 0 6 32 39
0 0 0 0 0 0 0 0 0 0 0 0 0 0 0 0 0 0 0 0 0 0 0 0 0 0 0 0 0 0 0 0 0 0 6 3 0 0 0 0 0 0 0
0 0 0 0 0 0 0 0 0 0 0 0 0 0 0 0 0 0 0 0 0 0 0 0 0 0 0 0 0 0 0 0 0 0 0 0 0 0 0 0 0 0 0
0 0 0 0 0 0 0 0 0 0 0 0 0 0 0 0 0 0 0 0 0 0 0 0 0 0 0 0 0 0 0 0 0 0 0 0 0 0 0 0 0 0 0
0 0 0 0 0 0 0 0 0 0 0 0 0 0 0 0 0 0 0 0 0 0 0 0 0 0 0 0 0 0 0 0 0 0 0 0 0 0 0 0 0 0 0
0 0 0 0 0 0 0 0 0 0 0 0 0 0 0 0 0 0 0 0 0 0 0 0 0 0 0 0 0 0 0 0 0 0 0 0 0 0 0 0 0 0 0
0 0 0 0 0 0 0 0 0 0 0 0 0 0 0 0 0 0 0 0 0 0 0 0 0 0 0 0 0 0 0 0 0 0 0 0 0 0 0 0 0 0 0
0 0 0 0 0 0 0 0 0 0 0 0 0 0 0 0 0 0 0 0 0 0 0 0 0 0 0 0 0 0 0 0 0 0 0 0 0 0 0 0 0 0 0
0 0 0 0 0 0 0 0 0 0 0 0 0 0 0 0 0 0 0 0 0 0 0 0 0 0 0 0 0 0 0 0 0 0 0 0 0 0 0 0 0 0 0
0 0 0 0 0 0 0 0 0 0 0 0 0 0 0 0 0 0 0 0 0 0 0 0 0 0 0 0 0 0 0 0 0 0 0 0 0 0 0 0 0 0 0
0 0 0 0 0 0 0 0 0 0 0 0 0 0 0 0 0 0 0 0 0 0 0 0 0 0 0 0 0 0 0 0 0 0 0 0 0 0 0 0 0 0 0
0 0 0 0 0 0 0 0 0 0 0 0 0 0 0 0 0 0 0 0 0 0 0 0 0 0 0 0 0 0 0 0 0 0 0 0 0 0 0 0 0 0 0
0 0 0 0 0 0 0 0 0 0 0 0 0 0 0 0 0 0 0 0 0 0 0 0 0 0 0 0 0 0 0 0 0 0 0 0 0 0 0 0 0 0 0
0 0 0 0 0 0 0 0 0 0 0 0 0 0 0 0 0 0 0 0 0 0 0 0 0 0 0 0 0 0 0 0 0 0 0 0 0 0 0 0 0 0 0
0 0 0 0 0 0 0 0 0 0 0 0 0 0 0 0 0 0 0 0 0 0 0 0 0 0 0 0 0 0 0 0 0 0 0 0 0 0 0 0 0 0 0
0 0 0 0 0 0 0 0 0 0 0 0 0 0 0 0 0 0 0 0 0 0 0 0 0 0 0 0 0 0 0 0 0 0 0 0 0 0 0 0 0 0 0
0 0 0 0 0 0 0 0 0 0 0 0 0 0 0 0 0 0 0 0 0 0 0 0 0 0 0 0 0 0 0 0 0 0 0 0 0 0 0 0 0 0 0
Height
5848 5848 5848 5849 5849 5850 5851 5853 5854 5854 5857 5858 5858 5859 5861 5863 5864 5865 5866 5869 5871 5873 5875 5877 5880 5884 5886 5888 5890 5891 5893 5894 5895 5896 5895 5895 5896 5896 5896 5896 5895 5896 5898
5844 5845 5845 5846 5847 5847 5849 5851 5853 5853 5855 5856 5857 5857 5858 5859 5861 5862 5864 5866 5869 5871 5873 5875 5878 5882 5884 5886 5888 5889 5891 5892 5893 5893 5893 5893 5894 5894 5894 5894 5894 5895 5896
5840 5841 5842 5843 5844 5844 5846 5849 5850 5850 5852 5854 5854 5854 5856 5857 5858 5859 5861 5863 5866 5869 5872 5874 5877 5879 5881 5883 5885 5888 5889 5890 5890 5890 5891 5892 5892 5893 5893 5893 5894 5893 5894
5836 5837 5839 5841 5842 5842 5844 5846 5847 5849 5850 5851 5852 5853 5854 5855 5855 5857 5858 5861 5864 5867 5870 5873 5875 5877 5879 5881 5883 5885 5886 5887 5887 5888 5889 5890 5891 5891 5892 5892 5893 5893 5894
5834 5833 5836 5838 5839 5840 5842 5844 5845 5847 5849 5850 5850 5850 5851 5853 5853 5855 5857 5859 5862 5866 5869 5872 5874 5875 5878 5879 5881 5882 5883 5885 5886 5887 5887 5888 5890 5890 5891 5891 5892 5893 5893
5831 5831 5833 5836 5837 5838 5839 5841 5843 5845 5847 5849 5849 5849 5849 5850 5851 5853 5856 5857 5860 5864 5867 5869 5872 5873 5875 5877 5879 5881 5882 5884 5885 5885 5886 5888 5888 5889 5890 5890 5890 5891 5892
5828 5827 5830 5832 5833 5834 5836 5838 5840 5841 5845 5846 5848 5848 5850 5850 5851 5852 5854 5855 5858 5861 5864 5867 5869 5871 5873 5875 5876 5879 5881 5882 5882 5883 5885 5886 5887 5887 5888 5889 5889 5889 5890
5826 5825 5826 5828 5829 5831 5833 5834 5835 5838 5841 5845 5847 5847 5849 5850 5850 5851 5852 5855 5856 5859 5861 5864 5866 5869 5871 5872 5873 5875 5877 5879 5880 5881 5883 5884 5885 5885 5886 5887 5887 5887 5887
5821 5821 5822 5824 5825 5827 5829 5830 5831 5835 5838 5842 5845 5846 5847 5848 5849 5850 5851 5853 5855 5857 5859 5862 5864 5866 5867 5869 5870 5871 5873 5875 5877 5878 5880 5881 5882 5882 5883 5884 5884 5884 5884
5815 5815 5817 5819 5820 5822 5824 5826 5828 5831 5835 5839 5841 5843 5845 5847 5847 5847 5849 5851 5853 5855 5857 5859 5861 5862 5864 5865 5866 5867 5868 5871 5873 5875 5876 5877 5877 5878 5878 5879 5880 5881 5881
5808 5808 5810 5812 5814 5816 5819 5823 5825 5828 5831 5835 5838 5840 5841 5842 5843 5845 5846 5848 5850 5852 5855 5856 5858 5859 5860 5861 5863 5864 5865 5867 5869 5871 5872 5873 5873 5873 5874 5875 5876 5878 5878
5799 5800 5802 5803 5806 5809 5812 5817 5822 5825 5826 5830 5833 5835 5836 5838 5840 5841 5843 5844 5846 5849 5851 5853 5854 5855 5856 5858 5859 5860 5861 5863 5865 5866 5867 5868 5868 5869 5870 5871 5872 5873 5873
5792 5794 5794 5795 5799 5802 5805 5810 5814 5817 5820 5824 5828 5831 5833 5835 5837 5839 5839 5841 5843 5844 5846 5849 5850 5851 5853 5854 5855 5856 5857 5859 5860 5861 5862 5863 5864 5865 5866 5866 5868 5868 5867
5785 5785 5783 5786 5791 5796 5799 5802 5805 5810 5814 5818 5821 5825 5828 5831 5833 5835 5836 5837 5838 5841 5842 5844 5846 5848 5849 5850 5851 5852 5853 5855 5856 5857 5858 5858 5859 5860 5861 5862 5862 5862 5861
5782 5781 5780 5781 5785 5788 5792 5796 5800 5804 5808 5812 5816 5819 5822 5825 5827 5830 5831 5833 5835 5836 5838 5840 5841 5843 5845 5846 5848 5849 5849 5850 5852 5853 5853 5854 5854 5855 5856 5856 5856 5855 5853
5777 5777 5776 5776 5782 5785 5787 5791 5795 5800 5803 5806 5809 5813 5815 5817 5820 5824 5826 5827 5829 5832 5832 5834 5837 5839 5839 5841 5843 5844 5845 5845 5847 5848 5848 5848 5848 5848 5849 5850 5849 5848 5846
5773 5773 5774 5775 5777 5780 5784 5787 5790 5795 5797 5799 5803 5806 5809 5810 5813 5816 5819 5821 5823 5825 5827 5828 5830 5833 5835 5836 5837 5838 5840 5841 5841 5842 5842 5843 5843 5843 5843 5842 5841 5840 5839
5768 5770 5771 5771 5773 5774 5778 5780 5784 5788 5791 5793 5796 5800 5802 5803 5806 5808 5811 5813 5815 5817 5820 5822 5823 5827 5828 5830 5831 5832 5833 5835 5836 5836 5836 5836 5837 5837 5837 5836 5835 5834 5833
5762 5764 5766 5767 5769 5771 5774 5775 5778 5781 5783 5784 5787 5792 5794 5796 5796 5799 5802 5804 5808 5811 5813 5815 5816 5819 5821 5823 5824 5825 5827 5828 5830 5830 5830 5830 5831 5831 5831 5830 5829 5828 5827
5759 5759 5759 5760 5761 5764 5766 5767 5769 5772 5775 5778 5780 5783 5786 5788 5788 5790 5794 5797 5801 5803 5806 5808 5809 5810 5813 5816 5818 5819 5821 5822 5825 5825 5825 5826 5826 5826 5825 5825 5825 5824 5823
5752 5753 5754 5754 5754 5755 5757 5760 5762 5765 5768 5771 5773 5776 5778 5780 5783 5785 5787 5790 5794 5797 5799 5801 5803 5805 5807 5810 5812 5814 5815 5817 5819 5820 5820 5821 5821 5820 5819 5820 5820 5820 5819
5744 5745 5747 5748 5749 5749 5750 5752 5755 5758 5760 5762 5764 5766 5769 5773 5776 5778 5781 5784 5787 5790 5792 5795 5798 5800 5801 5804 5806 5809 5810 5812 5813 5815 5816 5816 5815 5814 5814 5814 5814 5815 5814
5737 5738 5740 5742 5743 5745 5746 5747 5749 5750 5752 5754 5755 5758 5761 5766 5769 5770 5773 5777 5780 5783 5786 5789 5792 5794 5796 5798 5801 5803 5804 5805 5806 5808 5810 5810 5810 5809 5809 5808 5808 5808 5809
5729 5730 5731 5733 5734 5736 5739 5741 5743 5744 5746 5747 5750 5752 5754 5758 5761 5763 5766 5770 5774 5777 5780 5782 5784 5787 5789 5791 5794 5797 5798 5798 5799 5801 5803 5804 5803 5803 5803 5802 5803 5803 5803
5719 5720 5722 5725 5727 5729 5731 5732 5735 5737 5740 5741 5743 5745 5747 5748 5751 5754 5758 5762 5766 5769 5772 5775 5777 5779 5782 5785 5788 5790 5791 5792 5792 5793 5795 5796 5797 5797 5796 5796 5797 5797 5797
5711 5712 5714 5716 5719 5721 5724 5727 5729 5731 5733 5735 5737 5739 5740 5741 5743 5746 5749 5753 5757 5761 5765 5767 5770 5772 5775 5777 5780 5782 5784 5785 5786 5787 5789 5790 5790 5790 5790 5791 5792 5792 5792
Wind_Speed
12 13 11 10 9 13 15 15 15 10 9 11 11 14 17 13 12 12 12 14 16 16 15 16 16 16 18 18 17 15 14 13 12 12 12 10 7 7 7 7 6 5 3
13 14 13 11 10 13 15 15 15 10 7 9 10 11 14 15 12 12 12 13 14 14 14 14 17 18 17 18 18 17 16 15 15 14 12 9 8 7 7 5 4 4 4
13 15 15 13 11 14 13 14 16 12 8 10 11 11 11 12 12 12 13 14 15 15 13 14 17 19 20 21 20 19 19 18 15 13 10 9 9 7 6 5 3 3 4
13 15 16 15 13 14 14 14 14 12 8 9 9 11 11 10 10 11 13 15 17 17 16 15 15 17 18 18 18 18 17 16 13 11 10 9 8 6 5 4 4 6 6
14 16 16 16 15 15 14 15 14 14 8 7 6 6 7 9 10 12 14 15 17 18 16 14 14 14 13 13 12 12 12 13 13 12 11 9 7 5 4 4 5 6 7
14 14 14 17 16 16 17 18 16 15 11 9 7 3 5 7 8 11 13 15 17 18 17 16 15 14 14 13 13 12 12 13 14 13 13 11 8 6 5 5 6 6 8
13 13 14 16 17 18 18 18 15 18 13 9 9 6 6 6 7 8 9 12 15 18 19 19 18 18 17 17 17 17 16 14 14 14 13 10 8 8 8 8 8 8 9
17 17 17 20 20 19 20 21 17 16 15 13 11 9 9 8 8 7 7 9 13 15 18 19 19 20 21 21 21 21 20 19 18 17 15 13 12 12 11 11 12 10 10
23 21 22 22 22 22 22 21 21 20 20 17 13 11 12 11 9 9 10 11 11 12 14 15 17 18 19 21 21 21 20 20 22 21 19 17 16 14 13 13 14 14 13
28 27 26 27 26 26 27 23 20 21 21 19 16 14 14 14 12 13 13 13 12 13 14 14 16 17 18 19 19 19 19 19 23 23 20 18 16 16 14 15 15 17 16
28 30 31 32 32 31 32 29 26 24 23 22 19 19 19 18 17 17 16 17 17 16 16 15 16 16 17 17 17 17 18 19 21 22 21 20 19 18 17 18 17 17 17
27 28 33 34 34 33 34 31 30 27 25 24 23 23 24 21 19 20 18 17 19 20 19 17 17 17 17 17 16 16 18 20 21 22 22 21 21 20 20 19 19 18 19
23 25 32 37 37 35 33 30 31 30 29 26 24 24 25 22 20 21 19 17 17 18 19 18 18 18 18 18 17 17 18 19 20 21 22 22 22 22 22 22 20 20 23
16 20 24 35 37 33 31 31 32 33 35 32 29 28 26 25 23 21 20 18 15 16 18 18 18 17 18 19 18 17 16 17 18 19 21 22 22 23 24 23 22 24 26
12 13 13 20 38 37 38 37 36 33 35 35 32 31 28 26 26 25 24 23 20 19 19 18 17 17 16 17 17 18 17 18 19 20 22 23 24 24 23 23 24 25 26
13 13 12 9 21 30 38 39 36 32 33 34 33 30 27 30 30 29 28 27 25 22 20 21 19 19 17 16 17 18 20 21 21 21 23 24 25 23 23 24 25 25 25
13 14 15 15 15 15 21 26 31 29 29 30 32 32 31 32 31 30 31 31 30 27 24 23 24 24 22 20 19 21 22 22 22 21 21 22 23 23 23 24 24 23 23
15 12 15 19 22 21 20 18 23 23 23 28 33 33 32 33 33 31 32 32 31 29 27 25 27 27 25 23 22 22 21 22 21 20 20 20 21 22 23 23 23 22 20
19 15 16 20 24 26 28 27 27 28 24 26 30 32 31 29 29 32 34 35 34 32 29 29 30 29 28 27 24 22 22 22 22 21 21 22 22 22 21 22 22 19 18
21 18 17 20 22 25 27 26 28 30 28 28 29 30 32 31 28 29 31 34 34 32 29 29 30 29 26 25 24 23 22 20 21 21 22 22 22 22 21 19 19 18 17
23 21 20 21 23 25 27 26 24 26 26 27 30 33 33 29 29 27 26 30 32 30 29 27 27 26 24 23 23 24 23 21 22 22 22 23 22 22 19 18 18 17 17
24 24 23 23 24 26 29 30 26 25 22 22 26 33 37 32 32 30 30 29 31 31 30 28 27 27 25 21 20 23 22 23 24 25 25 24 23 21 20 20 19 18 16
27 27 26 25 25 25 23 22 22 25 25 23 26 32 37 38 36 30 32 31 32 34 31 29 29 30 29 25 21 23 23 24 26 26 25 24 24 22 22 21 20 19 18
27 27 27 28 27 25 23 22 22 23 26 28 30 31 32 33 36 32 33 32 33 35 32 31 31 30 28 28 24 23 23 24 26 26 26 25 24 22 22 22 21 20 19
26 26 26 27 27 26 25 23 21 23 25 29 30 29 29 31 36 36 35 34 34 33 33 33 29 29 29 28 25 25 23 25 27 26 26 26 24 22 22 22 21 20 18
29 25 24 27 28 27 25 26 25 26 28 29 28 29 30 28 31 36 36 35 35 37 37 37 33 32 31 28 26 26 25 25 27 27 26 26 25 23 22 22 22 21 18
Wind_Direction
269 258 242 234 238 244 248 251 245 240 249 246 236 232 233 236 247 238 231 221 209 205 203 203 204 207 209 215 217 220 227 240 259 275 283 279 272 279 284 282 270 251 224
266 259 242 232 236 246 249 246 244 227 238 252 243 235 232 233 242 239 226 217 207 202 206 208 209 213 213 222 227 234 238 248 263 272 271 261 263 267 268 273 282 270 256
260 252 242 237 241 246 243 244 243 220 213 243 242 239 242 236 231 232 223 218 207 203 208 213 214 217 222 226 229 235 243 250 256 257 255 254 256 253 251 253 267 275 277
260 249 244 242 242 245 240 235 240 229 224 237 243 235 235 232 224 223 219 215 211 209 211 215 216 221 226 228 229 234 240 243 243 241 241 242 249 243 234 245 270 275 282
267 253 240 236 238 239 240 237 236 239 218 229 246 253 231 225 220 222 219 217 217 217 213 214 215 217 222 228 229 230 235 240 240 236 229 219 220 231 250 262 275 282 282
262 257 239 235 233 232 232 232 239 233 219 233 245 241 218 219 224 226 223 220 218 220 218 219 223 223 228 232 232 232 235 239 240 232 217 212 221 234 251 265 273 279 275
261 248 241 240 235 234 232 234 238 226 217 212 219 207 205 210 215 220 219 217 216 218 220 224 229 233 236 235 236 236 239 246 241 229 221 228 243 259 268 271 270 268 267
270 258 252 245 239 235 231 232 232 217 217 213 216 214 217 218 218 212 206 208 213 217 220 223 229 236 240 239 239 241 247 245 235 226 231 242 252 260 262 267 271 270 271
263 257 257 249 237 231 233 231 224 227 223 218 216 214 216 221 223 225 216 208 210 220 227 231 233 238 243 245 245 246 245 237 227 225 234 245 252 256 258 263 268 268 269
261 257 255 241 231 230 236 231 216 220 228 230 224 223 222 228 237 241 231 221 217 222 227 233 237 240 245 248 250 250 246 237 228 228 237 248 252 255 261 267 266 268 269
265 253 248 239 232 231 237 233 229 231 238 230 228 234 234 236 239 239 235 231 228 230 233 233 239 244 248 252 254 252 248 243 238 238 244 253 258 261 266 270 269 270 270
262 250 243 234 231 228 233 231 235 237 231 224 233 237 240 243 237 230 230 233 234 230 232 239 243 246 249 249 251 254 254 250 247 247 252 256 260 266 269 268 266 265 273
263 263 253 235 225 218 218 221 223 224 223 229 237 239 238 239 237 230 224 229 235 233 235 240 247 250 249 246 247 252 254 252 248 248 251 254 261 265 262 260 263 271 280
279 279 283 229 212 210 218 219 217 220 223 232 240 235 240 241 236 233 228 225 228 237 242 239 244 250 246 244 243 246 248 251 250 250 252 256 261 262 260 261 266 276 283
281 275 269 233 213 210 219 221 220 225 229 232 235 232 243 242 242 238 237 236 240 246 245 238 237 245 245 247 248 250 250 252 255 255 257 260 261 260 259 262 271 280 285
283 272 262 240 222 217 218 222 226 228 227 235 232 234 240 239 244 245 242 242 246 248 248 245 240 244 248 251 251 252 256 259 261 261 261 262 261 258 259 266 277 283 284
295 270 250 245 249 239 227 232 232 225 236 237 232 240 241 243 242 243 244 244 245 248 248 247 246 246 249 252 252 255 258 256 258 262 264 263 260 260 268 277 280 281 281
295 286 264 258 251 242 234 242 229 235 242 244 244 244 248 244 242 239 244 246 242 239 244 246 249 251 250 246 252 257 257 258 262 265 267 264 263 269 275 277 279 281 285
284 282 269 259 248 243 242 249 242 245 252 245 237 239 241 245 242 240 241 242 238 239 245 249 249 248 247 245 246 248 256 262 266 267 266 264 267 271 272 275 278 282 286
276 279 272 262 256 252 254 260 248 249 247 243 237 237 240 242 239 238 239 241 239 239 242 246 247 243 244 241 241 246 252 259 265 264 263 263 268 272 271 271 274 281 282
268 270 267 262 262 260 259 259 256 250 244 240 237 236 237 238 240 242 238 232 235 240 239 240 244 241 241 241 242 243 249 255 259 260 260 261 265 270 270 269 274 278 282
270 270 266 262 258 258 258 258 258 251 255 258 254 241 235 235 236 238 236 231 233 235 236 238 242 240 242 240 241 249 251 252 258 259 259 260 263 265 267 269 274 276 282
264 264 261 253 250 253 250 248 251 253 258 257 256 245 237 233 233 233 231 228 231 232 232 235 239 240 244 246 247 250 251 254 254 254 256 260 262 264 264 268 273 276 279
261 260 256 250 249 252 257 251 246 246 247 246 247 246 239 238 240 235 230 226 233 233 234 235 233 235 242 248 250 246 246 248 251 253 253 257 258 262 266 267 270 270 272
261 255 248 245 246 254 261 257 250 244 247 250 248 248 245 238 235 232 230 229 231 234 235 235 232 231 239 245 246 245 249 255 251 248 252 256 255 259 264 266 267 265 263
264 255 248 242 242 246 245 246 251 248 246 248 248 250 251 240 239 236 232 230 230 232 232 229 228 231 239 243 246 247 251 255 255 253 253 258 257 256 260 264 265 262 260